W2DEN Weather Reports


time (UTC)temp
C
wind
direction
speed
KPH
gust
KPH
rain 1hr
cm
rain 24hr
cm
rain mn
cm
humidity
%
barometer
mb
20260506221217 28 0.0 1.6 0.00 0.00 0.00 60 1013.2
20260506220257 28 0.0 1.6 0.00 0.00 0.00 61 1013.3
20260506215217 28 0.0 1.6 0.00 0.00 0.00 60 1013.2
20260506214236 28 158 1.6 1.6 0.00 0.00 0.00 59 1013.3
20260506213217 29 158 1.6 4.8 0.00 0.00 0.00 58 1013.2
20260506212216 30 0.0 1.6 0.00 0.00 0.00 54 1013.3
20260506211258 31 158 1.6 3.2 0.00 0.00 0.00 49 1013.3
20260506210218 32 0.0 1.6 0.00 0.00 0.00 41 1013.3
20260506205216 32 0.0 1.6 0.00 0.00 0.00 43 1013.5
20260506204217 32 0.0 0.0 0.00 0.00 0.00 43 1013.5
20260506203216 32 0.0 1.6 0.00 0.00 0.00 44 1013.5
20260506202237 32 158 1.6 3.2 0.00 0.00 0.00 40 1013.6
20260506201216 33 0.0 1.6 0.00 0.00 0.00 40 1013.8
20260506200216 33 68 1.6 3.2 0.00 0.00 0.00 41 1013.8
20260506195236 33 45 1.6 1.6 0.00 0.00 0.00 42 1014.0
20260506194216 32 45 1.6 3.2 0.00 0.00 0.00 40 1014.0
20260506193216 32 45 1.6 3.2 0.00 0.00 0.00 40 1014.0
20260506192256 32 23 1.6 3.2 0.00 0.00 0.00 40 1014.0
20260506191216 32 45 1.6 3.2 0.00 0.00 0.00 41 1014.3
20260506190216 32 23 1.6 3.2 0.00 0.00 0.00 41 1014.5
20260506185216 31 0 1.6 4.8 0.00 0.00 0.00 40 1014.7
20260506184216 32 135 1.6 3.2 0.00 0.00 0.00 42 1014.9
20260506183236 31 158 1.6 3.2 0.00 0.00 0.00 46 1015.0
20260506182216 31 0.0 1.6 0.00 0.00 0.00 44 1015.2
20260506181236 31 23 1.6 3.2 0.00 0.00 0.00 42 1015.2
20260506180217 31 45 1.6 3.2 0.00 0.00 0.00 44 1015.4
20260506175216 30 68 3.2 12.9 0.00 0.00 0.00 46 1015.5
20260506174216 30 23 3.2 4.8 0.00 0.00 0.00 46 1015.7
20260506173216 29 158 1.6 3.2 0.00 0.00 0.00 49 1015.8
20260506172216 29 68 1.6 3.2 0.00 0.00 0.00 49 1016.2
20260506171216 30 0.0 3.2 0.00 0.00 0.00 46 1016.5
20260506170216 29 0.0 1.6 0.00 0.00 0.00 49 1016.7
20260506165216 29 23 1.6 3.2 0.00 0.00 0.00 50 1016.5
20260506164216 29 23 1.6 3.2 0.00 0.00 0.00 50 1016.7
20260506163236 28 23 1.6 1.6 0.00 0.00 0.00 50 1016.8
20260506162216 27 0.0 1.6 0.00 0.00 0.00 57 1016.9
20260506161236 27 0.0 3.2 0.00 0.00 0.00 56 1016.8
20260506160216 27 0.0 1.6 0.00 0.00 0.00 57 1016.9
20260506155216 27 0.0 1.6 0.00 0.00 0.00 60 1017.1
20260506154217 27 23 1.6 1.6 0.00 0.00 0.00 57 1017.0
20260506153216 27 23 1.6 3.2 0.00 0.00 0.00 59 1016.9
20260506152216 26 23 1.6 3.2 0.00 0.00 0.00 58 1017.0
20260506151216 26 23 1.6 3.2 0.00 0.00 0.00 57 1017.0
20260506150216 26 338 1.6 6.4 0.00 0.00 0.00 60 1017.2
20260506145216 26 0.0 0.0 0.00 0.00 0.00 63 1017.3
20260506144216 25 68 1.6 3.2 0.00 0.00 0.00 62 1017.1
20260506143216 25 45 1.6 1.6 0.00 0.00 0.00 66 1017.0
20260506142216 25 0.0 1.6 0.00 0.00 0.00 65 1016.8
20260506141216 25 0.0 1.6 0.00 0.00 0.00 64 1016.7
20260506140216 24 0.0 1.6 0.00 0.00 0.00 64 1016.6
20260506135256 24 23 1.6 3.2 0.00 0.00 0.00 68 1016.7
20260506134216 23 0.0 0.0 0.00 0.00 0.00 69 1016.7
20260506133216 23 180 1.6 1.6 0.00 0.00 0.00 71 1016.5
20260506132216 22 0.0 1.6 0.00 0.00 0.00 73 1016.5
20260506131236 21 0.0 0.0 0.00 0.00 0.00 74 1016.4
20260506130216 21 0.0 1.6 0.00 0.00 0.00 74 1016.3
20260506125216 21 0.0 0.0 0.00 0.00 0.00 78 1016.3
20260506124216 20 0.0 0.0 0.00 0.00 0.00 83 1016.4
20260506123236 19 0.0 1.6 0.00 0.00 0.00 89 1016.4
20260506122216 17 0.0 0.0 0.00 0.00 0.00 96 1016.4
20260506121216 16 0.0 0.0 0.00 0.00 0.00 97 1016.2
20260506120216 14 0.0 0.0 0.00 0.00 0.00 96 1015.9
20260506115216 13 0.0 0.0 0.00 0.00 0.00 96 1015.8
20260506114236 13 0.0 0.0 0.00 0.00 0.00 96 1015.7
20260506113216 13 0.0 0.0 0.00 0.00 0.00 96 1015.8
20260506112216 12 0.0 0.0 0.00 0.00 0.00 96 1015.8
20260506111237 12 0.0 0.0 0.00 0.00 0.00 96 1015.6
20260506110236 12 0.0 0.0 0.00 0.00 0.00 96 1015.5
20260506105216 12 0.0 0.0 0.00 0.00 0.00 95 1015.5
20260506104216 12 0.0 0.0 0.00 0.00 0.00 95 1015.4
20260506103216 12 0.0 0.0 0.00 0.00 0.00 95 1015.3
20260506102216 12 0.0 0.0 0.00 0.00 0.00 95 1015.5
20260506101216 12 0.0 0.0 0.00 0.00 0.00 95 1015.7
20260506100237 12 0.0 0.0 0.00 0.00 0.00 95 1015.5
20260506095236 12 0.0 0.0 0.00 0.00 0.00 95 1015.5
20260506094216 12 0.0 0.0 0.00 0.00 0.00 95 1015.7
20260506093217 12 0.0 0.0 0.00 0.00 0.00 95 1015.7
20260506092216 12 0.0 0.0 0.00 0.00 0.00 95 1015.6
20260506091236 13 0.0 0.0 0.00 0.00 0.00 95 1015.5
20260506090218 13 0.0 0.0 0.00 0.00 0.00 95 1015.4
20260506085238 13 0.0 0.0 0.00 0.00 0.00 95 1015.5
20260506084218 13 0.0 0.0 0.00 0.00 0.00 95 1015.5
20260506083218 13 0.0 0.0 0.00 0.00 0.00 95 1015.5
20260506081218 13 0.0 0.0 0.00 0.00 0.00 95 1015.6
20260506080218 13 0.0 0.0 0.00 0.00 0.00 95 1015.4
20260506073219 13 0.0 0.0 0.00 0.00 0.00 94 1015.4
20260506072218 13 0.0 0.0 0.00 0.00 0.00 94 1015.5
20260506071218 13 0.0 0.0 0.00 0.00 0.00 94 1015.6
20260506070218 13 0.0 0.0 0.00 0.00 0.00 94 1015.7
20260506062219 13 0.0 0.0 0.00 0.00 0.00 93 1015.7
20260506061236 13 0.0 0.0 0.00 0.00 0.00 93 1015.8
20260506060218 13 0.0 0.0 0.00 0.00 0.00 93 1016.1
20260506051238 13 0.0 0.0 0.00 0.00 0.00 92 1016.4
20260506050218 14 0.0 0.0 0.00 0.00 0.00 91 1016.3
20260506044217 14 0.0 0.0 0.00 0.00 0.00 91 1016.4
20260506043217 14 0.0 0.0 0.00 0.00 0.00 90 1016.4
20260506042218 14 0.0 0.0 0.00 0.00 0.00 90 1016.4
20260506041217 14 0.0 0.0 0.00 0.00 0.00 90 1016.6
20260506040237 15 0.0 0.0 0.00 0.00 0.00 89 1016.5
20260506035217 15 0.0 0.0 0.00 0.00 0.00 88 1016.6
20260506034216 15 0.0 0.0 0.00 0.00 0.00 87 1016.6
20260506033218 15 0.0 0.0 0.00 0.00 0.00 87 1016.5
20260506032216 15 0.0 0.0 0.00 0.00 0.00 86 1016.6
20260506031216 15 0.0 0.0 0.00 0.00 0.00 84 1016.7
20260506030216 16 0.0 0.0 0.00 0.00 0.00 83 1016.6
20260506025216 16 0.0 0.0 0.00 0.00 0.00 83 1016.6
20260506024257 16 0.0 0.0 0.00 0.00 0.00 82 1016.5
20260506023216 16 0.0 0.0 0.00 0.00 0.00 81 1016.4
20260506022216 17 0.0 0.0 0.00 0.00 0.00 79 1016.4
20260506021216 17 0.0 0.0 0.00 0.00 0.00 78 1016.2
20260506020236 17 0.0 0.0 0.00 0.00 0.00 77 1016.2
20260506015216 17 0.0 0.0 0.00 0.00 0.00 76 1016.3
20260506014216 17 0.0 0.0 0.00 0.00 0.00 75 1016.2
20260506013216 17 0.0 0.0 0.00 0.00 0.00 75 1016.1
20260506012236 18 0.0 0.0 0.00 0.00 0.00 74 1016.0
20260506011216 18 0.0 0.0 0.00 0.00 0.00 72 1015.9
20260506010216 18 0.0 0.0 0.00 0.00 0.00 71 1016.0
20260506005216 18 0.0 0.0 0.00 0.00 0.00 69 1015.8
20260506004216 19 0.0 0.0 0.00 0.00 0.00 67 1015.7
20260506003216 20 0.0 0.0 0.00 0.00 0.00 66 1015.5
20260506002236 20 0.0 0.0 0.00 0.00 0.00 63 1015.5
20260506001216 21 0.0 0.0 0.00 0.00 0.00 61 1015.4
20260506000216 21 0.0 0.0 0.00 0.00 0.00 60 1015.3
20260505235236 21 0.0 1.6 0.00 0.00 0.00 59 1015.5
20260505234236 21 0.0 1.6 0.00 0.00 0.00 59 1015.5
20260505233216 22 0.0 1.6 0.00 0.00 0.00 59 1015.5
20260505232216 22 0.0 0.0 0.00 0.00 0.00 59 1015.5
20260505231216 22 45 1.6 3.2 0.00 0.00 0.00 59 1015.4
20260505230216 22 0.0 1.6 0.00 0.00 0.00 59 1015.5
20260505225216 23 135 1.6 1.6 0.00 0.00 0.00 58 1015.3
20260505224216 23 135 1.6 3.2 0.00 0.00 0.00 58 1015.5
20260505223236 23 0.0 0.0 0.00 0.00 0.00 58 1015.4
20260505222216 23 158 1.6 3.2 0.00 0.00 0.00 56 1015.4